Погода в Сан-Гонсалу

Бразилия     22°49′23″S   43°02′43″W
темп.,
°C
ветер,
м/с
пор.,
м/с
влажн.,
%
обл.,
%
осадки,
мм/ч
давл.,
гПа
погр.,
м
23 октября, сб
сб2300:00+18всв128119 0.0 1014129
03:00+17св11872 0.0 101347
06:00+18св12880 0.0 101478
09:00+24в12652 0.0 1015591
12:00+29ю23511 0.0 10111195
15:00+30зюз22480 0.0 10071236
18:00+25всв25730 0.0 1008216
21:00+23всв38820 0.0 1008211
24 октября, вс
вс2400:00+22всв368387 0.0 1007149
03:00+21св118440 0.0 100727
06:00+22св2581100 0.0 1008141
09:00+27юз346298 0.0 1010512
12:00+32зсз0348100 0.1 10091001
15:00+33сз3644100 0.1 10071597
18:00+22ю41194100 1.3 1012521
21:00+22с1192100 3.8 1017120
25 октября, пн
пн2500:00+21с1191100 0.4 101677
03:00+21ююз2496100 1.9 1016275
06:00+20юз1496100 1.1 1019267
09:00+21з019097 1.6 1020260
12:00+22ююз228791 0.5 1019506
15:00+22ююв3583100 0.7 1018578
18:00+21ю1491100 0.3 1019305
21:00+21в1294100 0.9 1020161
26 октября, вт
вт2600:00+21с0195100 0.5 101987
03:00+21св0195100 0.7 101875
06:00+21всв019698 1.0 101976
09:00+23в018567 1.0 1021396
12:00+28юз226495 0.1 10191147
15:00+25ююв457866 0.6 1017551
18:00+24вюв2483100 0.6 1019374
21:00+23всв1486100 0.7 1021321
27 октября, ср
ср2700:00+23вюв1289100 0.0 1020238
03:00+22всв129199 0.0 1018188
06:00+22всв119288 0.0 1020109
09:00+26юз117360 0.1 1021770
12:00+26ю228030 2.0 1020682
15:00+26ююв348597 5.1 1019581
18:00+23ююв1395100 3.4 1020198
21:00+22св1197100 6.1 102171